EJU73LY LPPT-LFLL

Flight info

Callsign EJU73LY
Flight time N/A
Altitude 36000
Route IXIDA DCT TOSDI N745 ZMR N976 DGO T429 TOPTU DCT TOU DCT GAI DCT MEN DCT NINUN/N0375F260 G53 MEZIN
Aircraft A320/M-SDE3FGHIRWY/LB1

Departure

Time N/A
Airport Lisbon Humberto Delgado Airport (LPPT)

Arrival

Time 2026-05-05 20:11
Airport Lyon Saint-Exupéry Airport (LFLL)
Time Latitude Longitude Altitude Speed Heading
2026-05-05 18:53 41.55383 -5.56915 36007 ft 478 kts 63°
2026-05-05 18:53 41.56724 -5.52852 36000 ft 479 kts 63°
2026-05-05 18:53 41.59424 -5.44709 35996 ft 479 kts 63°
2026-05-05 18:54 41.62131 -5.36578 35991 ft 480 kts 63°
2026-05-05 18:54 41.64841 -5.28417 36004 ft 480 kts 63°
2026-05-05 18:55 41.67532 -5.20240 36044 ft 481 kts 63°
2026-05-05 18:55 41.70212 -5.12048 36042 ft 481 kts 63°
2026-05-05 18:56 41.72893 -5.03850 36040 ft 480 kts 63°
2026-05-05 18:56 41.75576 -4.95652 36035 ft 480 kts 63°
2026-05-05 18:57 41.78252 -4.87445 36039 ft 480 kts 63°
2026-05-05 18:57 41.80894 -4.79284 36033 ft 480 kts 63°
2026-05-05 18:58 41.83549 -4.71054 36025 ft 481 kts 63°
2026-05-05 18:58 41.86202 -4.62819 36011 ft 481 kts 63°
2026-05-05 18:59 41.88858 -4.54580 36022 ft 481 kts 64°
2026-05-05 18:59 41.91504 -4.46328 36037 ft 481 kts 64°
2026-05-05 19:00 41.94135 -4.38081 36032 ft 480 kts 64°
2026-05-05 19:00 41.96760 -4.29823 36030 ft 480 kts 64°
2026-05-05 19:01 41.99381 -4.21577 36032 ft 479 kts 64°
2026-05-05 19:01 42.01983 -4.13382 36029 ft 479 kts 64°
2026-05-05 19:02 42.04673 -4.05191 36029 ft 478 kts 62°
2026-05-05 19:02 42.07557 -3.97123 36028 ft 478 kts 61°
2026-05-05 19:03 42.10468 -3.89077 36027 ft 478 kts 61°
2026-05-05 19:03 42.13335 -3.80987 36031 ft 478 kts 62°
2026-05-05 19:04 42.16161 -3.72874 36046 ft 478 kts 63°
2026-05-05 19:04 42.18978 -3.64765 36047 ft 477 kts 63°
2026-05-05 19:05 42.21799 -3.56659 36041 ft 477 kts 62°
2026-05-05 19:05 42.24617 -3.48555 36042 ft 477 kts 63°
2026-05-05 19:06 42.27424 -3.40443 36046 ft 477 kts 63°
2026-05-05 19:06 42.30220 -3.32315 36034 ft 477 kts 63°
2026-05-05 19:07 42.32543 -3.25551 36031 ft 478 kts 63°
2026-05-05 19:07 42.35799 -3.16076 36032 ft 478 kts 63°
2026-05-05 19:08 42.38592 -3.07911 36053 ft 478 kts 63°
2026-05-05 19:08 42.41363 -2.99745 36049 ft 478 kts 63°
2026-05-05 19:09 42.44076 -2.91545 36041 ft 478 kts 69°
2026-05-05 19:09 42.45406 -2.82736 36032 ft 479 kts 88°
2026-05-05 19:10 42.45537 -2.73708 36015 ft 479 kts 89°
2026-05-05 19:10 42.45663 -2.64657 36014 ft 480 kts 89°
2026-05-05 19:11 42.45786 -2.55619 36009 ft 480 kts 89°
2026-05-05 19:11 42.45900 -2.46575 36007 ft 480 kts 89°
2026-05-05 19:12 42.45995 -2.37531 36006 ft 480 kts 89°
2026-05-05 19:12 42.46491 -2.30056 36007 ft 480 kts 77°
2026-05-05 19:13 42.48214 -2.19826 36004 ft 480 kts 77°
2026-05-05 19:13 42.49674 -2.11006 35997 ft 479 kts 77°
2026-05-05 19:14 42.50893 -2.03615 35993 ft 480 kts 77°
2026-05-05 19:14 42.52346 -1.94789 35992 ft 480 kts 77°
2026-05-05 19:15 42.53792 -1.85959 35991 ft 480 kts 77°
2026-05-05 19:15 42.55220 -1.77175 35987 ft 480 kts 77°
2026-05-05 19:16 42.56653 -1.68315 35992 ft 480 kts 77°
2026-05-05 19:16 42.58070 -1.59457 35995 ft 481 kts 77°
2026-05-05 19:17 42.59492 -1.50589 35982 ft 481 kts 78°
2026-05-05 19:17 42.60909 -1.41728 36005 ft 481 kts 78°
2026-05-05 19:18 42.62319 -1.32841 36004 ft 480 kts 78°
2026-05-05 19:18 42.63720 -1.23980 35992 ft 480 kts 78°
2026-05-05 19:19 42.65111 -1.15114 35985 ft 480 kts 78°
2026-05-05 19:19 42.66498 -1.06250 35969 ft 480 kts 78°
2026-05-05 19:20 42.67869 -0.97451 35967 ft 480 kts 78°
2026-05-05 19:20 42.69239 -0.88567 35960 ft 480 kts 79°
2026-05-05 19:21 42.70594 -0.79682 35965 ft 480 kts 79°
2026-05-05 19:21 42.71944 -0.70792 35958 ft 480 kts 79°
2026-05-05 19:22 42.73298 -0.61903 35960 ft 480 kts 79°
2026-05-05 19:22 42.74649 -0.53007 35962 ft 480 kts 79°
2026-05-05 19:23 42.75990 -0.44102 35972 ft 480 kts 79°
2026-05-05 19:23 42.77323 -0.35193 35972 ft 480 kts 79°
2026-05-05 19:24 42.78647 -0.26285 35988 ft 480 kts 78°
2026-05-05 19:24 42.80987 -0.17870 35983 ft 479 kts 59°
2026-05-05 19:25 42.84939 -0.10612 35971 ft 477 kts 49°
2026-05-05 19:25 42.89154 -0.03616 35976 ft 477 kts 49°
2026-05-05 19:26 42.93362 0.03420 35975 ft 479 kts 50°
2026-05-05 19:26 42.97572 0.10475 35978 ft 479 kts 50°
2026-05-05 19:27 43.01791 0.17537 35986 ft 480 kts 50°
2026-05-05 19:27 43.06008 0.24607 36010 ft 479 kts 50°
2026-05-05 19:28 43.10206 0.31689 36011 ft 479 kts 50°
2026-05-05 19:28 43.14366 0.38735 35997 ft 479 kts 50°
2026-05-05 19:29 43.18564 0.45819 35985 ft 479 kts 50°
2026-05-05 19:29 43.22761 0.52917 36005 ft 479 kts 50°
2026-05-05 19:30 43.26942 0.60039 36000 ft 479 kts 50°
2026-05-05 19:30 43.31114 0.67161 35999 ft 479 kts 50°
2026-05-05 19:31 43.35281 0.74298 35992 ft 478 kts 50°
2026-05-05 19:31 43.39444 0.81443 35976 ft 479 kts 51°
2026-05-05 19:32 43.43610 0.88591 36000 ft 479 kts 51°
2026-05-05 19:32 43.47765 0.95746 35998 ft 478 kts 51°
2026-05-05 19:33 43.51912 1.02901 35997 ft 477 kts 51°
2026-05-05 19:33 43.56050 1.10052 35984 ft 477 kts 51°
2026-05-05 19:34 43.60185 1.17210 35958 ft 477 kts 51°
2026-05-05 19:35 43.66368 1.27976 35975 ft 477 kts 51°
2026-05-05 19:35 43.70420 1.35155 35967 ft 476 kts 53°
2026-05-05 19:36 43.74347 1.42529 35973 ft 476 kts 54°
2026-05-05 19:36 43.78224 1.49953 35969 ft 476 kts 54°
2026-05-05 19:37 43.82132 1.57360 35966 ft 476 kts 54°
2026-05-05 19:37 43.86061 1.64746 35963 ft 476 kts 54°
2026-05-05 19:38 43.90006 1.72154 35959 ft 476 kts 54°
2026-05-05 19:38 43.93920 1.79568 35960 ft 476 kts 54°
2026-05-05 19:39 43.97795 1.87039 35959 ft 476 kts 55°
2026-05-05 19:39 44.01557 1.94618 35950 ft 476 kts 56°
2026-05-05 19:40 44.05266 2.02169 35955 ft 476 kts 56°
2026-05-05 19:40 44.09016 2.09757 35960 ft 476 kts 56°
2026-05-05 19:41 44.12778 2.17342 35953 ft 476 kts 56°
2026-05-05 19:41 44.16527 2.24932 35954 ft 476 kts 56°
2026-05-05 19:42 44.20271 2.32534 35943 ft 476 kts 56°
2026-05-05 19:42 44.24008 2.40151 35948 ft 476 kts 56°
2026-05-05 19:43 44.27733 2.47779 35946 ft 476 kts 56°
2026-05-05 19:43 44.31466 2.55414 35936 ft 476 kts 56°
2026-05-05 19:44 44.35198 2.63053 35935 ft 476 kts 56°
2026-05-05 19:44 44.38915 2.70700 35924 ft 476 kts 56°
2026-05-05 19:45 44.42628 2.78378 35934 ft 476 kts 57°
2026-05-05 19:45 44.46332 2.86064 35937 ft 476 kts 57°
2026-05-05 19:46 44.50014 2.93697 35937 ft 476 kts 57°
2026-05-05 19:46 44.53718 3.01379 35935 ft 476 kts 57°
2026-05-05 19:47 44.57419 3.09082 35924 ft 476 kts 57°
2026-05-05 19:47 44.61093 3.16807 35933 ft 476 kts 58°
2026-05-05 19:48 44.64477 3.24764 35933 ft 475 kts 62°
2026-05-05 19:48 44.67623 3.32921 35934 ft 474 kts 63°
2026-05-05 19:49 44.70773 3.41063 35932 ft 474 kts 62°
2026-05-05 19:49 44.73991 3.49152 35925 ft 474 kts 62°
2026-05-05 19:50 44.77233 3.57261 35908 ft 476 kts 62°
2026-05-05 19:50 44.80476 3.65402 35895 ft 478 kts 62°
2026-05-05 19:50 44.82106 3.69509 35125 ft 485 kts 62°
2026-05-05 19:51 44.83757 3.73689 34290 ft 490 kts 62°
2026-05-05 19:51 44.85410 3.77892 33633 ft 490 kts 63°
2026-05-05 19:51 44.87056 3.82079 32966 ft 487 kts 63°
2026-05-05 19:51 44.88692 3.86243 32333 ft 485 kts 63°
2026-05-05 19:52 44.90319 3.90390 31754 ft 482 kts 64°
2026-05-05 19:52 44.91936 3.94509 31212 ft 478 kts 64°
2026-05-05 19:52 44.93541 3.98600 30701 ft 474 kts 65°
2026-05-05 19:52 44.95110 4.02603 30225 ft 470 kts 65°
2026-05-05 19:53 44.96685 4.06632 29670 ft 467 kts 65°
2026-05-05 19:53 44.98244 4.10628 29106 ft 462 kts 65°
2026-05-05 19:53 44.99782 4.14581 28615 ft 457 kts 65°
2026-05-05 19:53 45.01295 4.18504 28116 ft 451 kts 68°
2026-05-05 19:54 45.02453 4.22551 27547 ft 438 kts 76°
2026-05-05 19:54 45.03441 4.26600 26663 ft 433 kts 75°
2026-05-05 19:54 45.04417 4.30580 25845 ft 425 kts 75°
2026-05-05 19:54 45.05380 4.34501 25059 ft 417 kts 75°
2026-05-05 19:55 45.06319 4.38331 24392 ft 408 kts 75°
2026-05-05 19:55 45.07235 4.42062 23943 ft 392 kts 75°
2026-05-05 19:55 45.08113 4.45642 23504 ft 379 kts 75°
2026-05-05 19:55 45.08960 4.49114 23001 ft 367 kts 75°
2026-05-05 19:56 45.09775 4.52470 22564 ft 354 kts 75°
2026-05-05 19:56 45.10719 4.55667 22150 ft 359 kts 60°
2026-05-05 19:56 45.12215 4.58557 21724 ft 367 kts 53°
2026-05-05 19:56 45.13822 4.61374 21272 ft 368 kts 53°
2026-05-05 19:57 45.15450 4.64198 20864 ft 371 kts 51°
2026-05-05 19:57 45.16644 4.65919 20528 ft 369 kts 39°
2026-05-05 19:57 45.19511 4.68524 19617 ft 364 kts 30°
2026-05-05 19:57 45.21689 4.70340 18965 ft 361 kts 30°
2026-05-05 19:58 45.23846 4.72134 18353 ft 357 kts 30°
2026-05-05 19:58 45.25977 4.73910 17696 ft 353 kts 30°
2026-05-05 19:58 45.28084 4.75663 17055 ft 349 kts 30°
2026-05-05 19:58 45.30161 4.77395 16486 ft 343 kts 30°
2026-05-05 19:59 45.32205 4.79106 16220 ft 341 kts 30°
2026-05-05 19:59 45.33555 4.80238 16046 ft 340 kts 30°
2026-05-05 19:59 45.35589 4.81941 15765 ft 338 kts 28°
2026-05-05 19:59 45.37765 4.83111 15293 ft 334 kts
2026-05-05 20:00 45.40043 4.83707 14899 ft 333 kts
2026-05-05 20:00 45.42321 4.84287 14505 ft 333 kts
2026-05-05 20:00 45.44603 4.84866 14111 ft 333 kts
2026-05-05 20:00 45.46884 4.85446 13713 ft 334 kts
2026-05-05 20:01 45.49172 4.86026 13282 ft 333 kts
2026-05-05 20:01 45.51449 4.86602 12879 ft 332 kts
2026-05-05 20:01 45.53721 4.87176 12472 ft 331 kts
2026-05-05 20:01 45.55983 4.87749 12067 ft 330 kts
2026-05-05 20:02 45.58236 4.88323 11657 ft 329 kts
2026-05-05 20:02 45.60482 4.88897 11246 ft 328 kts
2026-05-05 20:02 45.62725 4.89468 10834 ft 327 kts
2026-05-05 20:02 45.64961 4.90037 10410 ft 326 kts
2026-05-05 20:03 45.67184 4.90605 10154 ft 320 kts
2026-05-05 20:03 45.69341 4.91158 9991 ft 310 kts
2026-05-05 20:03 45.71440 4.91698 9540 ft 304 kts
2026-05-05 20:03 45.73516 4.92230 8874 ft 301 kts
2026-05-05 20:04 45.75555 4.92754 8327 ft 295 kts
2026-05-05 20:04 45.77549 4.93267 7903 ft 287 kts
2026-05-05 20:04 45.79487 4.93767 7486 ft 280 kts
2026-05-05 20:04 45.81386 4.94255 7092 ft 276 kts
2026-05-05 20:05 45.83258 4.94736 6678 ft 278 kts
2026-05-05 20:05 45.85158 4.95224 6330 ft 276 kts
2026-05-05 20:05 45.87042 4.95708 6008 ft 272 kts
2026-05-05 20:05 45.88838 4.96174 5836 ft 255 kts
2026-05-05 20:06 45.90505 4.96897 5617 ft 249 kts 29°
2026-05-05 20:06 45.91795 4.98499 5482 ft 247 kts 54°
2026-05-05 20:06 45.92529 5.00756 4921 ft 256 kts 79°
2026-05-05 20:06 45.92464 5.03273 4463 ft 248 kts 109°
2026-05-05 20:07 45.91664 5.05366 4299 ft 235 kts 134°
2026-05-05 20:07 45.90394 5.06759 4089 ft 225 kts 158°
2026-05-05 20:07 45.88936 5.07308 3837 ft 212 kts 177°
2026-05-05 20:07 45.87496 5.07480 3575 ft 204 kts 177°
2026-05-05 20:08 45.86113 5.07647 3320 ft 193 kts 177°
2026-05-05 20:08 45.84815 5.07806 3063 ft 180 kts 177°
2026-05-05 20:08 45.83614 5.07953 2826 ft 167 kts 177°
2026-05-05 20:08 45.82504 5.08089 2613 ft 157 kts 176°
2026-05-05 20:09 45.81438 5.08219 2411 ft 151 kts 176°
2026-05-05 20:09 45.80395 5.08346 2208 ft 149 kts 176°
2026-05-05 20:09 45.79363 5.08471 2012 ft 148 kts 176°
2026-05-05 20:09 45.78342 5.08595 1820 ft 147 kts 176°
2026-05-05 20:10 45.77320 5.08721 1610 ft 148 kts 176°
2026-05-05 20:10 45.76294 5.08847 1392 ft 149 kts 175°
2026-05-05 20:10 45.75262 5.08975 1165 ft 149 kts 176°
2026-05-05 20:10 45.74233 5.09100 966 ft 149 kts 176°
2026-05-05 20:11 45.73207 5.09227 801 ft 145 kts 177°
2026-05-05 20:11 45.72410 5.09322 813 ft 74 kts 175°
2026-05-05 20:11 45.72022 5.09366 819 ft 39 kts 176°
2026-05-05 20:11 45.71773 5.09333 822 ft 28 kts 198°
2026-05-05 20:12 45.71652 5.09252 817 ft 14 kts 218°
2026-05-05 20:12 45.71635 5.09147 814 ft 9 kts 265°
2026-05-05 20:12 45.71634 5.09132 814 ft 0 kts 265°
2026-05-05 20:12 45.71633 5.09124 814 ft 1 kts 265°
2026-05-05 20:13 45.71633 5.09121 814 ft 0 kts 265°
2026-05-05 20:13 45.71632 5.09107 814 ft 3 kts 265°
2026-05-05 20:14 45.71631 5.09083 814 ft 1 kts 265°
2026-05-05 20:14 45.71630 5.09071 814 ft 7 kts 265°
2026-05-05 20:14 45.71623 5.08956 810 ft 12 kts 265°
2026-05-05 20:14 45.71614 5.08834 813 ft 13 kts 263°
2026-05-05 20:15 45.71607 5.08737 808 ft 8 kts 264°
2026-05-05 20:15 45.71603 5.08669 807 ft 7 kts 265°
2026-05-05 20:15 45.71599 5.08601 805 ft 7 kts 265°
2026-05-05 20:15 45.71596 5.08529 803 ft 7 kts 280°
2026-05-05 20:16 45.71635 5.08501 802 ft 6 kts 350°
2026-05-05 20:16 45.71671 5.08493 802 ft 5 kts 349°
2026-05-05 20:16 45.71686 5.08453 801 ft 6 kts 273°
2026-05-05 20:16 45.71681 5.08384 800 ft 7 kts 264°
2026-05-05 20:17 45.71677 5.08319 800 ft 5 kts 265°
2026-05-05 20:17 45.71675 5.08267 801 ft 6 kts 269°
2026-05-05 20:17 45.71678 5.08194 801 ft 8 kts 251°
2026-05-05 20:17 45.71637 5.08162 802 ft 6 kts 194°
2026-05-05 20:18 45.71611 5.08153 802 ft 1 kts 194°
2026-05-05 20:18 45.71610 5.08152 802 ft 0 kts 194°